This is the latest recevied weather packets stored in our database for station/object KB4NWJ. If no packets are shown the sender has not sent any weather packets the latest 10 day(s).
| Time | Temp. | Humidity | Pressure | Rain* | Wind** | Luminosity | Snow |
|---|---|---|---|---|---|---|---|
| 1777510891 | 22.22° C | 91% | 1012.6 hPa | 0 mm | - | 0 W/m² | - |
| 1777510587 | 22.22° C | 91% | 1012.1 hPa | 0 mm | - | 0 W/m² | - |
| 1777510283 | 22.22° C | 90% | 1012.4 hPa | 0 mm | - | 0 W/m² | - |
| 1777509980 | 22.78° C | 90% | 1012.2 hPa | 0 mm | - | 0 W/m² | - |
| 1777509676 | 22.78° C | 90% | 1012.5 hPa | 0 mm | - | 0 W/m² | - |
| 1777509373 | 22.78° C | 90% | 1012.3 hPa | 0 mm | - | 0 W/m² | - |
| 1777509070 | 22.78° C | 89% | 1012 hPa | 0 mm | - | 0 W/m² | - |
| 1777508767 | 22.78° C | 89% | 1011.8 hPa | 0 mm | - | 0 W/m² | - |
| 1777508464 | 22.78° C | 88% | 1011.9 hPa | 0 mm | - | 0 W/m² | - |
| 1777508161 | 22.78° C | 88% | 1012.1 hPa | 0 mm | - | 1 W/m² | - |
| 1777507857 | 23.33° C | 87% | 1011.9 hPa | 0 mm | - | 3 W/m² | - |
| 1777507555 | 23.33° C | 86% | 1011.4 hPa | 0 mm | - | 6 W/m² | - |
| 1777507251 | 23.33° C | 86% | 1011.5 hPa | 0 mm | - | 9 W/m² | - |
| 1777506949 | 23.89° C | 85% | 1011.4 hPa | 0 mm | - | 11 W/m² | - |
| 1777506646 | 23.89° C | 85% | 1011.8 hPa | 0 mm | - | 18 W/m² | - |
| 1777506343 | 23.89° C | 85% | 1011.8 hPa | 0 mm | - | 22 W/m² | - |
| 1777506038 | 23.89° C | 85% | 1012 hPa | 0 mm | - | 30 W/m² | - |
| 1777505734 | 23.89° C | 85% | 1012.2 hPa | 0 mm | - | 22 W/m² | - |
| 1777505432 | 23.89° C | 84% | 1011.6 hPa | 0 mm | - | 10 W/m² | - |
| 1777505128 | 23.89° C | 83% | 1011.2 hPa | 0 mm | - | 16 W/m² | - |
| 1777504825 | 24.44° C | 82% | 1011.4 hPa | 0 mm | - | 22 W/m² | - |
| 1777504522 | 24.44° C | 82% | 1011.8 hPa | 0 mm | - | 32 W/m² | - |
| 1777504218 | 24.44° C | 81% | 1011.8 hPa | 0 mm | - | 30 W/m² | - |
| 1777503914 | 24.44° C | 81% | 1011.4 hPa | 0 mm | - | 49 W/m² | - |
| 1777503610 | 24.44° C | 81% | 1011.4 hPa | 0 mm | - | 52 W/m² | - |
* Rain latest hour (hover to see other rain measurements)
** Current wind speed in m/s (hover to see current wind gust speed)